User: anonymous   Login
Location: Unspecified
(0.0000°N, 0.0000°E)
Time: 07:32:00
(UTC+00:00)
Language:

USA 238 - Orbit

View from above orbital plane
View from above orbital plane
View from above satellite
View from above satellite

Ground track
Ground track

The orbit data is extracted from the following two-line orbital elements,

1 38758U 12048A   17287.96608475 0.00000000  00000-0  00000-0 0    09
2 38758  63.4342 356.5522 0039000   6.6678 353.3322 13.40737513    03
Epoch (UTC): 14 October 2017 23:11:09
Eccentricity: 0.0039000
inclination: 63.4342°
perigee height: 1077 km
apogee height: 1136 km
right ascension of ascending node: 356.5522°
argument of perigee: 6.6678°
revolutions per day: 13.40737513
mean anomaly at epoch: 353.3322°
orbit number at epoch: 0

The dashed part of the orbit path shows where the satellite is in the earth's shadow,  

DLR